Location: Yecla
(38.6122°N, 1.1101°W)
Time: 14:14:41
(UTC+01:00)

Envisat - Visible Passes

Search period start: 18 November 2019 00:00
Search period end: 28 November 2019 00:00
Orbit: 764 x 766 km, 98.1° (Epoch: 17 November)

Date Brightness Start Highest point End Pass type
(mag) Time Alt. Az. Time Alt. Az. Time Alt. Az.
18 Nov 2.9 18:52:58 10° SSE 18:57:59 66° ENE 19:03:02 10° N visible
18 Nov 6.1 20:35:11 10° WSW 20:37:27 13° W 20:39:43 10° WNW visible
19 Nov 5.6 07:03:53 10° NE 07:08:04 25° E 07:12:14 10° SSE visible
19 Nov 3.8 18:17:05 10° SE 18:21:26 30° ENE 18:25:47 10° N visible
19 Nov 4.9 19:55:57 10° SSW 20:00:21 30° W 20:04:48 10° NW visible
20 Nov 6.5 06:29:53 10° ENE 06:30:56 11° E 06:31:59 10° E visible
20 Nov 3.3 19:18:26 10° S 19:23:27 70° WSW 19:28:32 10° NNW visible
21 Nov 3.1 18:41:52 10° SSE 18:46:46 52° ENE 18:51:41 10° N visible
21 Nov 5.8 20:22:51 10° SW 20:26:03 17° W 20:29:17 10° NW visible
22 Nov 5.9 06:53:01 10° NE 06:56:43 20° E 07:00:23 10° SE visible
22 Nov 4.4 19:44:19 10° SSW 19:49:01 38° W 19:53:45 10° NNW visible
23 Nov 3.0 19:07:07 10° SSE 19:12:11 88° W 19:17:18 10° NNW visible
24 Nov 4.9 07:17:43 10° NNE 07:22:23 35° E 07:27:00 10° SSE visible
24 Nov 3.4 18:30:50 10° SE 18:35:32 41° ENE 18:40:17 10° N visible
24 Nov 5.4 20:10:51 10° SW 20:14:41 21° W 20:18:32 10° NW visible
25 Nov 6.0 06:42:21 10° NE 06:45:20 16° E 06:48:18 10° SE visible
25 Nov 3.9 19:32:49 10° S 19:37:42 49° W 19:42:38 10° NNW visible
26 Nov 2.9 18:55:53 10° SSE 19:00:55 73° ENE 19:06:00 10° N visible
26 Nov 6.1 20:38:45 10° WSW 20:40:26 12° W 20:42:08 10° WNW visible
27 Nov 5.3 07:06:43 10° NE 07:11:03 28° E 07:15:21 10° SSE visible
27 Nov 3.7 18:19:53 10° SE 18:24:20 32° ENE 18:28:49 10° N visible
27 Nov 5.0 19:59:03 10° SSW 20:03:19 27° W 20:07:38 10° NW visible
